Location: Niles Junction
(37.5763°N, 121.9714°W)
Time: 13:34:03
(UTC+00:00)

ADEOS - Pass Details

Date: 29 October 2020
Orbit: 793 x 794 km, 98.9° (Epoch: 01 December)

Event Time Altitude Azimuth Distance (km) Brightness Sun altitude
Rises 12:41:18 0° 13° (NNE) 3,302 6.9 -22.1°
Reaches altitude 10° 12:43:38 10° 13° (NNE) 2,368 6.2 -21.7°
Maximum altitude 12:48:52 89° 288° (WNW) 799 3.5 -20.6°
Drops below altitude 10° 12:54:05 10° 196° (SSW) 2,353 5.9 -19.6°
Sets 12:56:23 0° 196° (SSW) 3,278 6.6 -19.2°
